DeKalb, IL

2:19 PM CST on February 17, 2018 (GMT -0600)
De Kalb Taylor Municipal

Weather History for KDKB - October, 2012

Change the Weather History Date:

Friday, October 26, 2012

  Actual Average (KARR) Record (KARR)
Temperature  
Mean Temperature 42 °F -  
Max Temperature 49 °F 57 °F 75 °F (2000)
Min Temperature 35 °F 37 °F 26 °F (2013)
Degree Days  
Heating Degree Days 24    
Moisture  
Dew Point 31 °F    
Average Humidity 68    
Maximum Humidity 84    
Minimum Humidity 47    
Precipitation  
Precipitation 0.11 in - - ()
Sea Level Pressure  
Sea Level Pressure 30.27 in    
Wind  
Wind Speed 10 mph (NW)    
Max Wind Speed 16 mph    
Max Gust Speed 26 mph    
Visibility 10 miles    
Events      
Averages and records for this station are not official NWS values.
T = Trace of Precipitation, MM = Missing Value Source: NWS Daily Summary

Daily Weather History Graph

Daily Weather History Graph

Search for Another Location

Airport or City:

Trip Planner

Search our weather history database for the weather conditions in past years. The results will help you decide how hot, cold, wet, or windy it might be!

Date:

Astronomy

Oct. 26, 2012 Rise Set
Actual Time 7:20 AM CDT 5:56 PM CDT
Civil Twilight 6:52 AM CDT 6:24 PM CDT
Nautical Twilight 6:19 AM CDT 6:57 PM CDT
Astronomical Twilight 5:46 AM CDT 7:29 PM CDT
Moon 4:13 PM CDT (10/26) 4:14 AM CDT (10/26)
Length of Visible Light 11h 32m
Length of Day
10h 35m
Waxing Gibbous, 91% of the Moon is Illuminated
Oct 26
Waxing Gibbous
Oct 29
Full
Nov 6
Last Quarter
Nov 13
New
Nov 20
First Quarter

Hourly Weather History & Observations

Time (CDT) Temp. Windchill Dew Point Humidity Pressure Visibility Wind Dir Wind Speed Gust Speed Precip Events Conditions
12:15 AM 41.9 °F 34.0 °F 37.4 °F 84% 30.08 in 10.0 mi NW 16.1 mph 26.5 mph N/A   Overcast
12:35 AM 41.9 °F 34.3 °F 37.0 °F 83% 30.10 in 10.0 mi WNW 15.0 mph 20.7 mph N/A   Overcast
12:55 AM 41.9 °F 34.3 °F 36.5 °F 81% 30.12 in 10.0 mi NW 15.0 mph 24.2 mph N/A   Overcast
1:15 AM 41.9 °F 35.4 °F 36.1 °F 80% 30.13 in 10.0 mi NW 11.5 mph 19.6 mph N/A   Overcast
1:35 AM 41.5 °F 35.0 °F 36.0 °F 81% 30.14 in 10.0 mi NNW 11.5 mph - N/A   Overcast
2:15 AM 40.6 °F 33.0 °F 33.8 °F 77% 30.16 in 10.0 mi NNW 13.8 mph 24.2 mph N/A   Mostly Cloudy
2:35 AM 39.4 °F 32.7 °F 32.9 °F 78% 30.16 in 10.0 mi NW 10.4 mph 17.3 mph N/A   Clear
3:15 AM 38.3 °F 31.4 °F 32.4 °F 79% 30.18 in 10.0 mi NW 10.4 mph 16.1 mph N/A   Clear
3:35 AM 39.2 °F 33.6 °F 32.9 °F 78% 30.18 in 10.0 mi NW 8.1 mph - N/A   Mostly Cloudy
3:55 AM 39.0 °F 33.4 °F 33.3 °F 80% 30.19 in 10.0 mi WNW 8.1 mph - N/A   Overcast
4:15 AM 39.4 °F 33.2 °F 33.6 °F 80% 30.20 in 10.0 mi NW 9.2 mph - N/A   Overcast
4:35 AM 39.4 °F 33.8 °F 33.8 °F 80% 30.21 in 10.0 mi WNW 8.1 mph - N/A   Overcast
4:55 AM 39.2 °F 31.6 °F 32.2 °F 76% 30.21 in 10.0 mi NW 12.7 mph 18.4 mph N/A   Scattered Clouds
5:15 AM 39.7 °F 34.9 °F 32.5 °F 75% 30.21 in 10.0 mi NW 6.9 mph - N/A   Mostly Cloudy
5:35 AM 40.1 °F 33.6 °F 32.9 °F 75% 30.22 in 10.0 mi NNW 10.4 mph 16.1 mph N/A   Overcast
5:55 AM 39.2 °F 33.0 °F 30.6 °F 71% 30.23 in 10.0 mi NNW 9.2 mph 20.7 mph N/A   Mostly Cloudy
6:15 AM 37.6 °F 31.6 °F 29.5 °F 73% 30.24 in 10.0 mi North 8.1 mph - N/A   Scattered Clouds
6:35 AM 36.5 °F 31.8 °F 29.3 °F 75% 30.24 in 10.0 mi North 5.8 mph - N/A   Clear
6:55 AM 35.4 °F 30.5 °F 29.3 °F 78% 30.25 in 10.0 mi NNW 5.8 mph - N/A   Clear
7:15 AM 35.1 °F 31.0 °F 29.1 °F 79% 30.26 in 10.0 mi NNW 4.6 mph - N/A   Clear
7:35 AM 36.5 °F 31.0 °F 28.8 °F 74% 30.27 in 10.0 mi NNW 6.9 mph - N/A   Clear
7:55 AM 36.5 °F 31.8 °F 29.1 °F 75% 30.28 in 10.0 mi NNW 5.8 mph - N/A   Clear
8:15 AM 37.4 °F 32.8 °F 30.2 °F 75% 30.30 in 10.0 mi NNW 5.8 mph - N/A   Clear
8:35 AM 39.2 °F 33.6 °F 30.2 °F 70% 30.31 in 10.0 mi NW 8.1 mph - N/A   Clear
8:55 AM 39.0 °F 33.4 °F 30.6 °F 72% 30.32 in 10.0 mi NW 8.1 mph - N/A   Clear
9:15 AM 41.0 °F 34.3 °F 32.0 °F 70% 30.32 in 10.0 mi NNW 11.5 mph 17.3 mph N/A   Clear
9:55 AM 40.3 °F 33.4 °F 31.1 °F 70% 30.33 in 10.0 mi NW 11.5 mph - N/A   Scattered Clouds
10:15 AM 41.7 °F 35.6 °F 32.2 °F 69% 30.33 in 10.0 mi NNW 10.4 mph 16.1 mph N/A   Scattered Clouds
10:35 AM 42.1 °F 35.2 °F 31.8 °F 67% 30.32 in 10.0 mi NNW 12.7 mph 17.3 mph N/A   Clear
10:55 AM 43.3 °F 35.8 °F 30.7 °F 61% 30.32 in 10.0 mi NNW 16.1 mph 21.9 mph N/A   Clear
11:15 AM 43.7 °F 36.3 °F 30.6 °F 60% 30.32 in 10.0 mi NNW 16.1 mph 20.7 mph N/A   Clear
11:35 AM 44.4 °F 38.2 °F 31.1 °F 60% 30.32 in 10.0 mi North 12.7 mph 17.3 mph N/A   Clear
11:55 AM 44.8 °F 39.0 °F 30.9 °F 58% 30.32 in 10.0 mi NW 11.5 mph 19.6 mph N/A   Clear
12:15 PM 45.3 °F 39.7 °F 31.5 °F 58% 30.31 in 10.0 mi North 11.5 mph - N/A   Clear
12:35 PM 46.0 °F 41.0 °F 31.3 °F 56% 30.31 in 10.0 mi North 10.4 mph - N/A   Clear
12:55 PM 46.4 °F 41.5 °F 31.5 °F 56% 30.31 in 10.0 mi NW 10.4 mph - N/A   Clear
1:15 PM 46.4 °F 41.5 °F 30.4 °F 54% 30.31 in 10.0 mi NNW 10.4 mph - N/A   Clear
1:35 PM 46.6 °F - 30.4 °F 53% 30.31 in 10.0 mi North 6.9 mph - N/A   Clear
1:55 PM 46.9 °F - 29.8 °F 51% 30.30 in 10.0 mi North 9.2 mph - N/A   Clear
2:15 PM 47.7 °F - 30.9 °F 52% 30.30 in 10.0 mi NNW 9.2 mph - N/A   Clear
2:35 PM 48.4 °F - 30.2 °F 49% 30.29 in 10.0 mi NNW 6.9 mph - N/A   Clear
2:55 PM 48.2 °F - 29.5 °F 48% 30.29 in 10.0 mi NW 4.6 mph - N/A   Clear
3:35 PM 47.8 °F - 29.7 °F 49% 30.29 in 10.0 mi NW 6.9 mph - N/A   Clear
3:55 PM 48.2 °F - 29.1 °F 48% 30.29 in 10.0 mi NNW 8.1 mph - N/A   Clear
4:15 PM 47.3 °F - 28.8 °F 49% 30.28 in 10.0 mi NW 9.2 mph - N/A   Clear
4:35 PM 47.3 °F - 28.6 °F 48% 30.28 in 10.0 mi NW 4.6 mph - N/A   Clear
4:55 PM 46.8 °F - 28.4 °F 49% 30.28 in 10.0 mi NNW 6.9 mph - N/A   Clear
5:15 PM 46.8 °F - 27.3 °F 47% 30.28 in 10.0 mi NW 6.9 mph - N/A   Clear
5:35 PM 46.0 °F 43.9 °F 28.4 °F 50% 30.29 in 10.0 mi NW 4.6 mph - N/A   Clear
5:55 PM 45.7 °F 42.7 °F 29.1 °F 52% 30.28 in 10.0 mi NW 5.8 mph - N/A   Clear
6:15 PM 45.3 °F 41.1 °F 29.8 °F 55% 30.28 in 10.0 mi NNW 8.1 mph - N/A   Clear
6:35 PM 44.6 °F 41.4 °F 30.9 °F 59% 30.28 in 10.0 mi NNW 5.8 mph - N/A   Clear
6:55 PM 44.2 °F 41.8 °F 31.1 °F 60% 30.28 in 10.0 mi NW 4.6 mph - N/A   Clear
7:15 PM 43.5 °F 40.9 °F 32.0 °F 64% 30.29 in 10.0 mi NNW 4.6 mph - N/A   Clear
7:35 PM 42.8 °F 40.1 °F 32.0 °F 66% 30.29 in 10.0 mi NNW 4.6 mph - N/A   Clear
7:55 PM 42.8 °F 39.3 °F 32.0 °F 66% 30.30 in 10.0 mi NW 5.8 mph - N/A   Clear
8:15 PM 42.1 °F 37.7 °F 31.8 °F 67% 30.30 in 10.0 mi NW 6.9 mph - N/A   Clear
8:35 PM 41.0 °F 36.4 °F 31.8 °F 70% 30.30 in 10.0 mi NW 6.9 mph - N/A   Clear
8:55 PM 39.4 °F 35.2 °F 31.8 °F 74% 30.30 in 10.0 mi NW 5.8 mph - N/A   Clear
9:15 PM 39.2 °F - 31.6 °F 74% 30.31 in 10.0 mi Calm Calm - N/A   Clear
9:35 PM 36.9 °F 33.1 °F 31.3 °F 80% 30.31 in 10.0 mi NNW 4.6 mph - N/A   Clear
10:15 PM 35.8 °F 31.9 °F 30.7 °F 82% 30.31 in 10.0 mi NW 4.6 mph - N/A   Clear
10:35 PM 36.5 °F 32.7 °F 30.7 °F 80% 30.31 in 10.0 mi NW 4.6 mph - N/A   Clear
10:55 PM 36.5 °F 32.7 °F 30.7 °F 80% 30.31 in 10.0 mi NW 4.6 mph - N/A   Clear
11:15 PM 37.4 °F 32.8 °F 30.2 °F 75% 30.31 in 10.0 mi NW 5.8 mph - N/A   Clear
11:35 PM 36.5 °F 29.7 °F 30.9 °F 80% 30.31 in 10.0 mi NNW 9.2 mph - N/A   Clear
11:55 PM 36.5 °F 29.7 °F 31.1 °F 81% 30.32 in 10.0 mi NNW 9.2 mph - N/A   Clear